Flag for Finland Weather past 2 weeks in Turku, Finland

Now
34 °F

Partly sunny.


Feels Like: 26 °F
Forecast: 28 / 35 °F
Wind: 9 mph from South

Location: Turku Airport

Current Time: Jan 30, 2015 at 1:39:52 PM

Latest Report: Jan 30, 2015 at 1:20 PM


Visibility: N/A

Pressure: 29.12 "Hg

Humidity: 81%

Dew point: 28 °F

Location of TurkuLocation

Historic Weather in Turku — Graph

°F

Turku temperature yesterday

Maximum temperature yesterday: 37 °F (at 12:20 AM)
Minimum temperature yesterday: 32 °F (at 7:20 AM)
Average temperature yesterday: 34 °F

Past Weeks' High & Low Weather Summary

 TemperatureHumidityPressure
High41 °F (Jan 16, 5:20 PM)100% (Jan 16, 1:50 AM)30.36 "Hg (Jan 16, 1:50 AM)
Low18 °F (Jan 22, 2:50 AM)60% (Jan 25, 2:20 AM)28.94 "Hg (Jan 29, 11:20 AM)
Average31 °F90%29.78 "Hg
* Reported Jan 15 12:20 PM — Jan 30 12:20 PM, Turku, Weather by CustomWeather, © 2014

Note: Actual official high and low records may vary slightly from our data, if they occured in-between our weather recording intervals... More about our weather records

Advertising

Turku weather history for previous 24 hours

 ConditionsComfort  
Time TempWeatherWind HumidityBarometerVisibility
12:20 PM
Jan 30
34 °FPartly sunny.9 mph87%29.12 "HgN/A
11:50 AM34 °FPartly sunny.9 mph87%29.12 "HgN/A
11:20 AM34 °FBroken clouds.8 mph87%29.12 "HgN/A
10:50 AM34 °FMore clouds than sun.9 mph87%29.12 "HgN/A
10:20 AM32 °FLight snow. Mostly cloudy.8 mph100%29.09 "HgN/A
9:50 AM32 °FLight snow. Mostly cloudy.7 mph100%29.09 "Hg4 mi
9:20 AM32 °FLight snow. Mostly cloudy.8 mph100%29.09 "Hg4 mi
8:50 AM32 °FLight snow. Overcast.7 mph100%29.09 "HgN/A
8:20 AM32 °FLight snow. Mostly cloudy.7 mph100%29.06 "HgN/A
7:50 AM32 °FLight snow. Low clouds.7 mph100%29.06 "HgN/A
7:20 AM32 °FLight snow. Overcast.9 mph100%29.06 "HgN/A
6:50 AM32 °FLight snow. Passing clouds.8 mph100%29.06 "HgN/A
6:20 AM32 °FLight snow. Mostly cloudy.10 mph100%29.06 "Hg5 mi
5:20 AM32 °FLight snow. Mostly cloudy.8 mph100%29.03 "Hg5 mi
4:50 AM32 °FLight snow. Mostly cloudy.8 mph100%29.03 "Hg3 mi
4:20 AM32 °FLight snow. Mostly cloudy.9 mph100%29.03 "Hg4 mi
3:50 AM32 °FLight rain. Low clouds.8 mph100%29.03 "HgN/A
3:20 AM32 °FLight snow. Mostly cloudy.7 mph100%29.03 "Hg1 mi
2:50 AM34 °FLight snow. Passing clouds.8 mph93%29.03 "Hg2 mi
2:20 AM34 °FLight snow. Mostly cloudy.7 mph93%29.03 "HgN/A
1:50 AM34 °FLight snow. Passing clouds.8 mph93%29.03 "Hg2 mi
1:20 AM34 °FLight snow. Mostly cloudy.7 mph93%29.03 "HgN/A
12:50 AM34 °FPassing clouds.6 mph93%29.03 "HgN/A
12:20 AM34 °FLight snow. Overcast.7 mph93%29.00 "HgN/A
11:50 PM
Jan 29
34 °FLight rain. Passing clouds.8 mph93%29.00 "HgN/A
11:20 PM34 °FPartly cloudy.8 mph100%29.00 "HgN/A
10:50 PM34 °FLight rain. Passing clouds.6 mph93%29.00 "HgN/A
10:20 PM34 °FLight snow. Passing clouds.7 mph93%29.00 "Hg4 mi
9:50 PM34 °FPassing clouds.7 mph100%29.00 "HgN/A
9:20 PM34 °FMostly cloudy.8 mph100%28.97 "HgN/A
8:50 PM34 °FMostly cloudy.8 mph100%28.97 "HgN/A
8:20 PM34 °FLight snow. Low clouds.9 mph100%28.97 "HgN/A
7:50 PM34 °FLight snow. Mostly cloudy.7 mph93%28.97 "HgN/A
7:20 PM34 °FLight snow. Mostly cloudy.9 mph93%28.97 "Hg2 mi
6:50 PM34 °FLight snow. Mostly cloudy.9 mph100%28.97 "HgN/A
6:20 PM34 °FLight snow. Mostly cloudy.8 mph100%28.97 "Hg3 mi
5:50 PM34 °FLight rain. Mostly cloudy.9 mph93%28.94 "Hg2 mi
5:20 PM34 °FLight rain. Mostly cloudy.10 mph100%28.94 "HgN/A
4:50 PM34 °FLight rain. Mostly cloudy.10 mph100%28.94 "HgN/A
4:20 PM34 °FLight rain. Low clouds.8 mph100%28.94 "HgN/A
3:50 PM34 °FLight rain. Low clouds.10 mph100%28.94 "Hg6 mi
3:20 PM34 °FLow clouds.10 mph100%28.94 "HgN/A
2:50 PM34 °FLow clouds.10 mph100%28.94 "HgN/A
2:20 PM34 °FLow clouds.13 mph93%28.94 "HgN/A
1:50 PM34 °FLow clouds.13 mph93%28.94 "HgN/A
1:20 PM32 °FLight snow. Low clouds.12 mph100%28.94 "Hg4 mi
Weather by CustomWeather, © 2014

See weather overviewHow to use our weather pages